This is the latest recevied weather packets stored in our database for station/object WX5II-2. If no packets are shown the sender has not sent any weather packets the latest 10 day(s).
| Time | Temp. | Humidity | Pressure | Rain* | Wind** | Luminosity | Snow |
|---|---|---|---|---|---|---|---|
| 1777915497 | 25° C | 45% | 1013.4 hPa | 0 mm | 0 m/s | - | - |
| 1777914873 | 25° C | 44% | 1013.4 hPa | 0 mm | 0 m/s | - | - |
| 1777914247 | 24.44° C | 46% | 1013.4 hPa | 0 mm | 0 m/s | - | - |
| 1777913624 | 23.89° C | 50% | 1014.4 hPa | 0 mm | 0 m/s | - | - |
| 1777913001 | 23.33° C | 50% | 1014.4 hPa | 0 mm | 0 m/s | - | - |
| 1777912377 | 23.33° C | 53% | 1014.4 hPa | 0 mm | 0 m/s | - | - |
| 1777911754 | 22.78° C | 54% | 1014.4 hPa | 0 mm | 0 m/s | - | - |
| 1777911131 | 22.22° C | 55% | 1014.4 hPa | 0 mm | 0 m/s | - | - |
| 1777910509 | 22.22° C | 56% | 1014.4 hPa | 0 mm | 0 m/s | - | - |
| 1777909886 | 21.67° C | 60% | 1014.4 hPa | 0 mm | 0 m/s | - | - |
| 1777909263 | 21.67° C | 59% | 1014.4 hPa | 0 mm | 0 m/s | - | - |
| 1777908640 | 21.11° C | 62% | 1014.4 hPa | 0 mm | 0 m/s | - | - |
| 1777908017 | 20.56° C | 62% | 1015.4 hPa | 0 mm | 0 m/s | - | - |
| 1777907395 | 20.56° C | 62% | 1015.4 hPa | 0 mm | 0 m/s | - | - |
| 1777906772 | 20.56° C | 62% | 1015.4 hPa | 0 mm | 0 m/s | - | - |
| 1777906149 | 20.56° C | 62% | 1015.4 hPa | 0 mm | 0 m/s | - | - |
| 1777905525 | 20.56° C | 63% | 1015.4 hPa | 0 mm | 0 m/s | - | - |
| 1777904902 | 20° C | 64% | 1015.4 hPa | 0 mm | 0 m/s | - | - |
| 1777904280 | 19.44° C | 65% | 1015.4 hPa | 0 mm | 0 m/s | - | - |
| 1777903656 | 19.44° C | 64% | 1015.4 hPa | 0 mm | 0 m/s | - | - |
| 1777903034 | 18.89° C | 67% | 1015.4 hPa | 0 mm | 0 m/s | - | - |
| 1777902412 | 18.33° C | 69% | 1015.4 hPa | 0 mm | 0 m/s | - | - |
| 1777901788 | 17.78° C | 74% | 1015.4 hPa | 0 mm | 0 m/s | - | - |
| 1777901166 | 16.67° C | 74% | 1015.4 hPa | 0 mm | 0 m/s | - | - |
| 1777900543 | 16.67° C | 77% | 1016.4 hPa | 0 mm | 0 m/s | - | - |
* Rain latest hour (hover to see other rain measurements)
** Current wind speed in m/s (hover to see current wind gust speed)